This demonstration page uses our WeatherBlox Daily Observations layout. Learn more.

Hourly Observations for November 14, 2019

Temp ( °F °C ) Dew Point ( °F °C ) Humidity (%) Winds ( mph kmh ) Pressure ( in mb ) Visibility ( mi km ) Precip ( " mm )
12:54 am 00:54 Clear 34 1.1 26 -3.3 73 73 N 8 13 30.21 1023 10 16.09344 0 0
1:54 am 01:54 Clear 32 0 26 -3.3 79 79 NNW 6 9 30.24 1024 10 16.09344 0 0
2:54 am 02:54 Clear 31 -0.6 25 -3.9 79 79 NW 6 9 30.24 1024 10 16.09344 0 0
3:54 am 03:54 Clear 30 -1.1 25 -3.9 82 82 NW 6 9 30.27 1025 10 16.09344 0 0
4:54 am 04:54 Clear 24 -4.4 21 -6.1 88 88 N 5 7 30.3 1026 9 14.484096 0 0
5:54 am 05:54 Clear 23 -5 20 -6.7 88 88 Calm 30.33 1027 8 12.874752 0 0
6:54 am 06:54 Clear 23 -5 18 -7.8 81 81 WSW 3 6 30.36 1028 8 12.874752 0 0
7:54 am 07:54 Sunny with Mist and Fog 26 -3.3 22 -5.6 84 84 W 3 6 30.39 1029 6 9.656064 0 0
8:54 am 08:54 Sunny 31 -0.6 24 -4.4 76 76 NW 5 7 30.39 1029 9 14.484096 0 0
9:54 am 09:54 Sunny 35 1.7 21 -6.1 57 57 NW 5 7 30.39 1029 10 16.09344 0 0
10:54 am 10:54 Sunny 40 4.4 23 -5 51 51 NNW 8 13 30.39 1029 10 16.09344 0 0
11:54 am 11:54 Sunny 43 6.1 24 -4.4 47 47 undefined N/A 30.39 1029 10 16.09344 0 0
12:54 pm 12:54 Sunny 45 7.2 22 -5.6 40 40 NNW 9 15 30.36 1028 10 16.09344 0 0
1:54 pm 13:54 Sunny 48 8.9 21 -6.1 34 34 N 7 11 30.33 1027 10 16.09344 0 0
2:54 pm 14:54 Sunny 49 9.4 20 -6.7 32 32 NNW 6 9 30.33 1027 10 16.09344 0 0
3:54 pm 15:54 Sunny 48 8.9 23 -5 37 37 WNW 6 9 30.36 1028 10 16.09344 0 0
4:54 pm 16:54 Sunny 41 5 25 -3.9 53 53 NNE 5 7 30.36 1028 10 16.09344 0 0
5:54 pm 17:54 Clear 40 4.4 24 -4.4 53 53 S 3 6 30.36 1028 10 16.09344 0 0
6:54 pm 18:54 Clear 33 0.6 23 -5 66 66 Calm 30.36 1028 10 16.09344 0 0
7:54 pm 19:54 Clear 32 0 23 -5 69 69 Calm 30.36 1028 10 16.09344 0 0
8:54 pm 20:54 Clear 29 -1.7 21 -6.1 72 72 S 3 6 30.39 1029 10 16.09344 0 0
9:54 pm 21:54 Clear 28 -2.2 21 -6.1 75 75 SE 5 7 30.36 1028 10 16.09344 0 0
10:54 pm 22:54 Clear 28 -2.2 21 -6.1 75 75 Calm 30.36 1028 10 16.09344 0 0
11:54 pm 23:54 Clear 28 -2.2 21 -6.1 75 75 Calm 30.36 1028 10 16.09344 0 0

Powered by AerisWeather